Regional Weather Roundup
Issued by NWS

Home | Current Version | Previous Version | Graphics & Text | Print | Product List | Glossary On
Versions: 1 2 3 4 5 6 7 8 9 10 11 12 13 14 15 16 17 18 19 20 21 22 23 24 25 26 27 28 29 30 31 32 33 34 35 36 37 38 39 40 41 42 43 44 45 46 47 48 49 50
237
ASUS45 KTFX 231210
RWRMT
MONTANA REGIONAL WEATHER ROUNDUP
NATIONAL WEATHER SERVICE GREAT FALLS MT
600 AM MDT MON APR 23 2018

NOTE: "FAIR" INDICATES FEW OR NO CLOUDS BELOW 12000 FEET WITH NO
SIGNIFICANT WEATHER AND/OR OBSTRUCTIONS TO VISIBILITY.

MTZ001>007-043-231300-
WEST OF THE DIVIDE

CITY           SKY/WX    TMP DP  RH WIND       PRES   REMARKS
KALISPELL      CLOUDY    42  23  46 CALM      30.28R
MISSOULA       FAIR      33  22  63 CALM      30.25R
BUTTE          LGT SNOW  34  30  85 NW6       30.19R FOG     WCI  29
MULLAN PASS    FAIR      30  17  58 CALM      30.21S
ANACONDA         N/A     30  30 100 MISG      30.22S
DEER LODGE       N/A     34  30  86 N9        30.27S WCI  26
HAMILTON         N/A     34  21  60 MISG      30.22R
RONAN            N/A     30  27  86 CALM      30.27R
$$

MTZ008-052>055-231300-
SOUTHWEST MONTANA

CITY           SKY/WX    TMP DP  RH WIND       PRES   REMARKS
BOZEMAN        CLOUDY    37  35  92 N5        30.16F
DILLON         CLOUDY    33  33 100 NE6       30.15R WCI  28
ENNIS          FLURRIES  32  32 100 N20G26    30.15R WCI  20
W YELLOWSTONE  LGT SNOW  32  32 100 NW5       30.06S
THREE FORKS      N/A     37  34  89 N14       30.15S WCI  28
$$

MTZ009-010-012-014-046-048-049-054-231300-
EAST SLOPES AND CENTRAL MONTANA

CITY           SKY/WX    TMP DP  RH WIND       PRES   REMARKS
CUT BANK       FAIR      30  23  75 N10       30.34R WCI  21
GREAT FALLS    CLOUDY    38  25  59 CALM      30.32R
HELENA         LGT SNOW  34  33  96 NW8       30.28R FOG     WCI  27
CHOTEAU          N/A     36  23  60 NW12      30.34R WCI  27
WHITE SULPHUR  FOG       32  32 100 NW14      30.19S VSB 1/2 WCI  22
$$

MTZ011-013-016-021-045-047-050-051-231300-
NORTH CENTRAL MONTANA

CITY           SKY/WX    TMP DP  RH WIND       PRES   REMARKS
HAVRE          FAIR      38  29  70 NE7       30.32R
LEWISTOWN      LGT SNOW  32  32 100 SW3       30.28R FOG
N BAR RANCH    LGT SNOW  32  32 100 NW8       30.27R VSB 3/4 WCI  25
CHINOOK          N/A     36  32  87 NW3       30.33R
$$

MTZ017>020-022>027-061-062-231300-
NORTHEAST MONTANA

CITY           SKY/WX    TMP DP  RH WIND       PRES   REMARKS
GLASGOW        FAIR      42  32  67 NE6       30.27S
GLENDIVE       CLOUDY    46  26  45 NE14      30.22R
JORDAN           N/A     46  31  55 NE6       30.22F
MALTA          CLEAR     41  32  70 N12       30.27S
SIDNEY         FAIR      42  31  64 N9        30.26R
WOLF POINT     FAIR      42  31  64 NE3       30.27S
PLENTYWOOD       N/A     36  34  93 NW3       30.27R
POPLAR           N/A     39  30  70 CALM      30.28S
$$

MTZ028>42-056>058-231300-
SOUTHCENTRAL AND SOUTHEAST MONTANA

CITY           SKY/WX    TMP DP  RH WIND       PRES   REMARKS
BAKER          FAIR      43  29  57 NE21      30.15R
BILLINGS       LGT RAIN  41  37  86 N24       30.16R
LIVINGSTON     LGT SNOW  34  50 100 E18       30.17R WCI  23
MILES CITY     LGT RAIN  48  29  47 NE16G26   30.18R
BIG TIMBER     CLOUDY    34  34 100 NE6       30.23R FOG     WCI  29
FORSYTH          N/A     45  34  65 NE13      30.14F
LAUREL           N/A     39  37  93 N21       30.19S WCI  29
$$

REGIONAL REPORTS...DAKOTAS

CITY           SKY/WX    TMP DP  RH WIND       PRES   REMARKS
WILLISTON      FAIR      38  32  79 N9        30.25R WCI  31
MINOT          FAIR      37  29  72 NW12      30.22R WCI  29
DICKINSON      FAIR      41  28  60 N10       30.16R
BEACH          CLOUDY    41  27  56 N3        30.23R
CROSBY         FAIR      32  32 100 NW8       30.26R WCI  25
TIOGA          FAIR      37  34  87 CALM      30.25R
BISMARCK       FAIR      39  35  86 E3        30.17R
GRAND FORKS    FAIR      37  36  96 W6        30.16R
FARGO          CLOUDY    41  36  82 S8        30.19R
BUFFALO SD       N/A     45  37  73 NE13      30.04S
RAPID CITY     FAIR      38  35  89 SE6       30.07R
$$

REGIONAL REPORTS...WYOMING/IDAHO/WASHINGTON

CITY           SKY/WX    TMP DP  RH WIND       PRES   REMARKS
GILLETTE       FAIR      40  35  83 N8        30.03R
SHERIDAN       FAIR      45  33  63 NW15      30.06R
BUFFALO WY     FAIR      45  32  60 N13       30.05R
CODY           CLOUDY    41  31  67 NW21G30   30.11R
YELLOWSTONE LA   N/A     32  31  96 CALM      30.13S
IDAHO FALLS    FAIR      43  39  86 CALM      30.08S
SALMON         LGT RAIN  43  32  65 N8        30.15R
BOISE          FAIR      40  25  55 W9        30.18R
SPOKANE        FAIR      36  22  56 N5        30.29R
$$

REGIONAL REPORTS...ALBERTA

CITY           SKY/WX    TMP DP  RH WIND       PRES   REMARKS
CALGARY        PTCLDY    32  21  64 NE2       30.37R
EDMONTON       CLEAR     28  14  54 W7        30.33S WCI  21
FORT MCMURRAY  CLEAR     27  25  93 S6        30.25R WCI  20
HIGH LEVEL     CLEAR     25  21  86 CALM      30.22R
LETHBRIDGE     PTCLDY    28  23  80 W5        30.37S
LLOYDMINSTER   CLEAR     28  27  93 W12       30.29R WCI  18
MEDICINE HAT   CLEAR     28  25  86 S3        30.37R
MILK RIVER       N/A     30  27  86 N9          N/A  WCI  22
PEACE RIVER    PTCLDY    28  21  74 S6        30.28R WCI  22
PINCHER CREEK  CLOUDY    27  23  86 W8        30.37R WCI  18
WATERTON GATE    N/A     27  21  80 NE2         N/A
$$

REGIONAL REPORTS...SASKATCHEWAN

CITY           SKY/WX    TMP DP  RH WIND       PRES   REMARKS
CORONACH         N/A     30  28  93 NW2         N/A
CYPRESS HILLS    N/A     30  25  80 N7          N/A  WCI  23
ESTEVAN        MOCLDY    30  28  93 NW9       30.24S WCI  22
MOOSE JAW        N/A     37  32  81 W8          N/A  WCI  31
PRINCE ALBERT  PTCLDY    36  30  80 W8        30.21R WCI  29
REGINA         MOCLDY    32  30  93 CALM      30.25R
ROCKGLEN         N/A     34  30  86 NW7         N/A  WCI  28
SASKATOON      PTCLDY    32  30  93 W12       30.27R WCI  23
SWIFT CURRENT  CLEAR     28  27  93 W10       30.29R WCI  19
VAL MARIE        N/A     32  28  86 N3          N/A
$$




USA.gov is the U.S. government's official web portal to all federal, state and local government web resources and services.